Time,TemperatureF,DewpointF,PressureIn,WindDirection,WindDirectionDegrees,WindSpeedMPH,WindSpeedGustMPH,Humidity,HourlyPrecipIn,Conditions,Clouds,dailyrainin,SolarRadiationWatts/m^2,SoftwareType,DateUTC
2013-04-07 00:02:00,8.0,-5.0,-100.00,SSW,198,0.0,4.0,54,0.00,,,0.00,0.000000,,2013-04-07 08:02:00,
2013-04-07 00:12:00,8.0,-5.0,-100.00,SSW,198,0.0,4.0,54,0.00,,,0.00,0.000000,,2013-04-07 08:12:00,
2013-04-07 00:43:00,7.0,-4.0,-100.00,SSW,212,0.0,1.0,61,0.00,,,0.00,0.000000,,2013-04-07 08:43:00,
2013-04-07 00:53:00,7.0,-4.0,-100.00,SSW,212,0.0,1.0,61,0.00,,,0.00,0.000000,,2013-04-07 08:53:00,
2013-04-07 01:02:00,7.0,-4.0,-100.00,SSW,212,0.0,1.0,61,0.00,,,0.00,0.000000,,2013-04-07 09:02:00,
2013-04-07 01:12:00,7.0,-4.0,-100.00,SSW,212,0.0,1.0,61,0.00,,,0.00,0.000000,,2013-04-07 09:12:00,
2013-04-07 01:44:00,7.0,-4.0,-100.00,ESE,111,0.0,0.0,59,0.00,,,0.00,0.000000,,2013-04-07 09:44:00,
2013-04-07 01:53:00,7.0,-4.0,-100.00,ESE,111,0.0,0.0,59,0.00,,,0.00,0.000000,,2013-04-07 09:53:00,
2013-04-07 02:03:00,7.0,-4.0,-100.00,ESE,111,0.0,0.0,59,0.00,,,0.00,0.000000,,2013-04-07 10:03:00,
2013-04-07 02:12:00,7.0,-4.0,-100.00,ESE,111,0.0,0.0,59,0.00,,,0.00,0.000000,,2013-04-07 10:12:00,
2013-04-07 02:43:00,7.0,-2.0,-100.00,South,182,0.0,0.0,67,0.00,,,0.00,0.000000,,2013-04-07 10:43:00,
2013-04-07 02:53:00,7.0,-2.0,-100.00,South,182,0.0,0.0,67,0.00,,,0.00,0.000000,,2013-04-07 10:53:00,
2013-04-07 03:02:00,7.0,-2.0,-100.00,South,182,0.0,0.0,67,0.00,,,0.00,0.000000,,2013-04-07 11:02:00,
2013-04-07 03:12:00,7.0,-2.0,-100.00,South,182,0.0,0.0,67,0.00,,,0.00,0.000000,,2013-04-07 11:12:00,
2013-04-07 03:43:00,6.0,-1.0,-100.00,SSW,207,1.0,4.0,72,0.00,,,0.00,0.000000,,2013-04-07 11:43:00,
2013-04-07 03:53:00,6.0,-1.0,-100.00,SSW,207,1.0,4.0,72,0.00,,,0.00,0.000000,,2013-04-07 11:53:00,
2013-04-07 04:02:00,6.0,-1.0,-100.00,SSW,207,1.0,4.0,72,0.00,,,0.00,0.000000,,2013-04-07 12:02:00,
2013-04-07 04:12:00,6.0,-1.0,-100.00,SSW,207,1.0,4.0,72,0.00,,,0.00,0.000000,,2013-04-07 12:12:00,
2013-04-07 04:43:00,5.0,0.0,-100.00,South,185,0.0,2.0,80,0.00,,,-99.99,0.000000,,2013-04-07 12:43:00,
2013-04-07 04:53:00,5.0,0.0,-100.00,South,185,0.0,2.0,80,0.00,,,-99.99,0.000000,,2013-04-07 12:53:00,
2013-04-07 05:03:00,5.0,0.0,-100.00,South,185,0.0,2.0,80,0.00,,,-99.99,0.000000,,2013-04-07 13:03:00,
2013-04-07 05:12:00,5.0,0.0,-100.00,South,185,0.0,2.0,80,0.00,,,-99.99,0.000000,,2013-04-07 13:12:00,
2013-04-07 05:43:00,4.0,0.0,-100.00,South,172,0.0,2.0,82,0.00,,,0.00,0.000000,,2013-04-07 13:43:00,
2013-04-07 05:53:00,4.0,0.0,-100.00,South,172,0.0,2.0,82,0.00,,,0.00,0.000000,,2013-04-07 13:53:00,
2013-04-07 06:02:00,4.0,0.0,-100.00,South,172,0.0,2.0,82,0.00,,,0.00,0.000000,,2013-04-07 14:02:00,
2013-04-07 06:12:00,4.0,0.0,-100.00,South,172,0.0,2.0,82,0.00,,,0.00,0.000000,,2013-04-07 14:12:00,
2013-04-07 06:44:00,4.0,0.0,-100.00,SSE,148,0.0,2.0,84,0.00,,,0.00,0.000000,,2013-04-07 14:44:00,
2013-04-07 06:53:00,4.0,0.0,-100.00,SSE,148,0.0,2.0,84,0.00,,,0.00,0.000000,,2013-04-07 14:53:00,
2013-04-07 07:02:00,4.0,0.0,-100.00,SSE,148,0.0,2.0,84,0.00,,,0.00,0.000000,,2013-04-07 15:02:00,
2013-04-07 07:12:00,4.0,0.0,-100.00,SSE,148,0.0,2.0,84,0.00,,,0.00,0.000000,,2013-04-07 15:12:00,
2013-04-07 07:45:00,3.0,0.0,-100.00,SE,138,0.0,1.0,85,0.00,,,0.00,2.000000,,2013-04-07 15:45:00,
2013-04-07 07:54:00,3.0,0.0,-100.00,SE,138,0.0,1.0,85,0.00,,,0.00,2.000000,,2013-04-07 15:54:00,
2013-04-07 08:03:00,3.0,0.0,-100.00,SE,138,0.0,1.0,85,0.00,,,0.00,2.000000,,2013-04-07 16:03:00,
2013-04-07 08:13:00,3.0,0.0,-100.00,SE,138,0.0,1.0,85,0.00,,,0.00,2.000000,,2013-04-07 16:13:00,
2013-04-07 08:44:00,4.0,0.0,-100.00,SE,138,0.0,2.0,83,0.00,,,0.00,16.000000,,2013-04-07 16:44:00,
2013-04-07 08:54:00,4.0,0.0,-100.00,SE,138,0.0,2.0,83,0.00,,,0.00,16.000000,,2013-04-07 16:54:00,
2013-04-07 09:03:00,4.0,0.0,-100.00,SE,138,0.0,2.0,83,0.00,,,0.00,16.000000,,2013-04-07 17:03:00,
2013-04-07 09:12:00,4.0,0.0,-100.00,SE,138,0.0,2.0,83,0.00,,,0.00,16.000000,,2013-04-07 17:12:00,
2013-04-07 09:43:00,7.0,1.0,-100.00,SSE,153,1.0,3.0,77,0.00,,,0.00,37.000000,,2013-04-07 17:43:00,
2013-04-07 09:53:00,7.0,1.0,-100.00,SSE,153,1.0,3.0,77,0.00,,,0.00,37.000000,,2013-04-07 17:53:00,
2013-04-07 10:02:00,7.0,1.0,-100.00,SSE,153,1.0,3.0,77,0.00,,,0.00,37.000000,,2013-04-07 18:02:00,
2013-04-07 10:12:00,7.0,1.0,-100.00,SSE,153,1.0,3.0,77,0.00,,,0.00,37.000000,,2013-04-07 18:12:00,
2013-04-07 10:43:00,7.0,0.0,-100.00,SSW,197,1.0,5.0,72,0.00,,,0.00,51.000000,,2013-04-07 18:43:00,
2013-04-07 10:52:00,7.0,0.0,-100.00,SSW,197,1.0,5.0,72,0.00,,,0.00,51.000000,,2013-04-07 18:52:00,
2013-04-07 11:02:00,7.0,0.0,-100.00,SSW,197,1.0,5.0,72,0.00,,,0.00,51.000000,,2013-04-07 19:02:00,
2013-04-07 11:12:00,7.0,0.0,-100.00,SSW,197,1.0,5.0,72,0.00,,,0.00,51.000000,,2013-04-07 19:12:00,
2013-04-07 11:43:00,8.0,1.0,-100.00,SSW,199,1.0,4.0,74,0.00,,,0.00,57.000000,,2013-04-07 19:43:00,
2013-04-07 12:02:00,8.0,1.0,-100.00,SSW,199,1.0,4.0,74,0.00,,,0.00,57.000000,,2013-04-07 20:02:00,
2013-04-07 12:12:00,8.0,1.0,-100.00,SSW,199,1.0,4.0,74,0.00,,,0.00,57.000000,,2013-04-07 20:12:00,
2013-04-07 12:44:00,11.0,1.0,-100.00,SW,214,2.0,4.0,63,0.00,,,0.00,103.000000,,2013-04-07 20:44:00,
2013-04-07 12:53:00,11.0,1.0,-100.00,SW,214,2.0,4.0,63,0.00,,,0.00,103.000000,,2013-04-07 20:53:00,
2013-04-07 13:02:00,11.0,1.0,-100.00,SW,214,2.0,4.0,63,0.00,,,0.00,103.000000,,2013-04-07 21:02:00,
2013-04-07 13:12:00,11.0,1.0,-100.00,SW,214,2.0,4.0,63,0.00,,,0.00,103.000000,,2013-04-07 21:12:00,
2013-04-07 13:45:00,14.0,2.0,-100.00,SSW,199,2.0,5.0,58,0.00,,,0.00,152.000000,,2013-04-07 21:45:00,
2013-04-07 14:03:00,14.0,2.0,-100.00,SSW,199,2.0,5.0,58,0.00,,,0.00,152.000000,,2013-04-07 22:03:00,
2013-04-07 14:13:00,14.0,2.0,-100.00,SSW,199,2.0,5.0,58,0.00,,,0.00,152.000000,,2013-04-07 22:13:00,
2013-04-07 14:44:00,14.0,1.0,-100.00,SSW,196,3.0,6.0,56,0.00,,,0.00,149.000000,,2013-04-07 22:44:00,
2013-04-07 14:53:00,14.0,1.0,-100.00,SSW,196,3.0,6.0,56,0.00,,,0.00,149.000000,,2013-04-07 22:53:00,
2013-04-07 15:03:00,14.0,1.0,-100.00,SSW,196,3.0,6.0,56,0.00,,,0.00,149.000000,,2013-04-07 23:03:00,
2013-04-07 15:12:00,14.0,1.0,-100.00,SSW,196,3.0,6.0,56,0.00,,,0.00,149.000000,,2013-04-07 23:12:00,
2013-04-07 15:43:00,12.0,3.0,-100.00,SW,226,3.0,8.0,67,0.00,,,0.00,98.000000,,2013-04-07 23:43:00,
2013-04-07 15:52:00,12.0,3.0,-100.00,SW,226,3.0,8.0,67,0.00,,,0.00,98.000000,,2013-04-07 23:52:00,
2013-04-07 16:02:00,12.0,3.0,-100.00,SW,226,3.0,8.0,67,0.00,,,0.00,98.000000,,2013-04-08 00:02:00,
2013-04-07 16:12:00,12.0,3.0,-100.00,SW,226,3.0,8.0,67,0.00,,,0.00,98.000000,,2013-04-08 00:12:00,
2013-04-07 16:43:00,11.0,5.0,-100.00,SW,214,2.0,6.0,75,0.00,,,-99.99,60.000000,,2013-04-08 00:43:00,
2013-04-07 16:52:00,11.0,5.0,-100.00,SW,214,2.0,6.0,75,0.00,,,-99.99,60.000000,,2013-04-08 00:52:00,
2013-04-07 17:02:00,11.0,5.0,-100.00,SW,214,2.0,6.0,75,0.00,,,-99.99,60.000000,,2013-04-08 01:02:00,
2013-04-07 17:12:00,11.0,5.0,-100.00,SW,214,2.0,6.0,75,0.00,,,-99.99,60.000000,,2013-04-08 01:12:00,
2013-04-07 17:44:00,11.0,6.0,-100.00,SW,224,1.0,7.0,78,0.00,,,0.00,38.000000,,2013-04-08 01:44:00,
2013-04-07 17:55:00,11.0,6.0,-100.00,SW,224,1.0,7.0,78,0.00,,,0.00,38.000000,,2013-04-08 01:55:00,
2013-04-07 18:02:00,11.0,6.0,-100.00,SW,224,1.0,7.0,78,0.00,,,0.00,38.000000,,2013-04-08 02:02:00,
2013-04-07 18:12:00,11.0,6.0,-100.00,SW,224,1.0,7.0,78,0.00,,,0.00,38.000000,,2013-04-08 02:12:00,
2013-04-07 18:48:00,10.0,5.0,-100.00,SSW,205,1.0,5.0,80,0.00,,,0.00,28.000000,,2013-04-08 02:48:00,
2013-04-07 18:53:00,10.0,5.0,-100.00,SSW,205,1.0,5.0,80,0.00,,,0.00,28.000000,,2013-04-08 02:53:00,
2013-04-07 19:05:00,10.0,5.0,-100.00,SSW,205,1.0,5.0,80,0.00,,,0.00,28.000000,,2013-04-08 03:05:00,
2013-04-07 19:13:00,10.0,5.0,-100.00,SSW,205,1.0,5.0,80,0.00,,,0.00,28.000000,,2013-04-08 03:13:00,
2013-04-07 19:55:00,10.0,6.0,-100.00,SSW,198,0.0,4.0,83,0.00,,,0.00,16.000000,,2013-04-08 03:55:00,
2013-04-07 20:02:00,10.0,6.0,-100.00,SSW,198,0.0,4.0,83,0.00,,,0.00,16.000000,,2013-04-08 04:02:00,
2013-04-07 20:12:00,10.0,6.0,-100.00,SSW,198,0.0,4.0,83,0.00,,,0.00,16.000000,,2013-04-08 04:12:00,
2013-04-07 20:44:00,9.0,4.0,-100.00,SE,138,0.0,2.0,79,0.00,,,-99.99,11.000000,,2013-04-08 04:44:00,
2013-04-07 20:52:00,9.0,4.0,-100.00,SE,138,0.0,2.0,79,0.00,,,-99.99,11.000000,,2013-04-08 04:52:00,
2013-04-07 21:02:00,9.0,4.0,-100.00,SE,138,0.0,2.0,79,0.00,,,-99.99,11.000000,,2013-04-08 05:02:00,
2013-04-07 21:12:00,9.0,4.0,-100.00,SE,138,0.0,2.0,79,0.00,,,-99.99,11.000000,,2013-04-08 05:12:00,
2013-04-07 21:42:00,5.0,2.0,-100.00,ESE,106,0.0,0.0,86,0.00,,,0.00,3.000000,,2013-04-08 05:42:00,
2013-04-07 21:52:00,5.0,2.0,-100.00,ESE,106,0.0,0.0,86,0.00,,,0.00,3.000000,,2013-04-08 05:52:00,
2013-04-07 22:02:00,5.0,2.0,-100.00,ESE,106,0.0,0.0,86,0.00,,,0.00,3.000000,,2013-04-08 06:02:00,
2013-04-07 22:12:00,5.0,2.0,-100.00,ESE,106,0.0,0.0,86,0.00,,,0.00,3.000000,,2013-04-08 06:12:00,
2013-04-07 22:43:00,-2.0,-5.0,-100.00,East,89,0.0,0.0,88,0.00,,,0.00,0.000000,,2013-04-08 06:43:00,
2013-04-07 22:52:00,-2.0,-5.0,-100.00,East,89,0.0,0.0,88,0.00,,,0.00,0.000000,,2013-04-08 06:52:00,
2013-04-07 23:02:00,-2.0,-5.0,-100.00,East,89,0.0,0.0,88,0.00,,,0.00,0.000000,,2013-04-08 07:02:00,
2013-04-07 23:12:00,-2.0,-5.0,-100.00,East,89,0.0,0.0,88,0.00,,,0.00,0.000000,,2013-04-08 07:12:00,
2013-04-07 23:42:00,-6.0,-9.0,-100.00,East,89,0.0,0.0,87,0.00,,,0.00,0.000000,,2013-04-08 07:42:00,